sat.trackr.live / text

‹ back to catalog

SXM-8

NORAD 48838 · 2021-049A

PAYLOAD ACTIVE UNKNOWN

§ Identity

Operator
Country
US
Launch date
2021-06-06
Launch site
AFETR
Launch vehicle
Mass (kg)
RCS (m²)

Purposes: comms

External: N2YO · Heavens-Above · Gunter

§ Orbital elements

Epoch: 2026-09-09T22:12:11.313216Z

Period
1,436.11 min
Inclination
0.0299°
Eccentricity
0.0005564
Mean motion
1.00270699 rev/d
Perigee alt
35,763.4 km
Apogee alt
35,810.4 km
Semi-major
42,165.0 km
B*
0.0000e+0
RAAN
64.2893°
Arg perigee
329.7678°
Mean anomaly
202.8084°
Rev number
1,943

§ Raw data

SXM-81 48838U 21049A   26252.92513094 -.00000226  00000+0  00000+0 0  99962 48838   0.0299  64.2893 0005564 329.7678 202.8084  1.00270699 19432

JSON: /api/v1/satellites/48838 · /tle

For live sub-satellite position, see the globe view (requires WebGL).

§ Visibility from observer

Set your observer location to see the next 7 days of passes ≥ 10°. The values pass through the URL so the page stays shareable.

No JS? Fill the form by hand. The geolocation button needs JavaScript.